Regional Weather Roundup
Issued by NWS

Home | Current Version | Previous Version | Graphics & Text | Print | Product List | Glossary On
Versions: 1 2 3 4 5 6 7 8 9 10 11 12 13 14 15 16 17 18 19 20 21 22 23 24 25 26 27 28 29 30 31 32 33 34 35 36 37 38 39 40 41 42 43 44 45 46 47 48 49 50
000
ASUS43 KOAX 211502
RWRNE

WEATHER ROUNDUP FOR NEBRASKA
NATIONAL WEATHER SERVICE OMAHA NE
900 AM CST TUE NOV 21 2017

NOTES: SATELLITE DATA IS BEING USED TO AUGMENT CLOUD COVER ABOVE
       12000 FEET.
       "FAIR" INDICATES FEW OR NO CLOUDS BELOW 12,000 FEET WITH NO
       SIGNIFICANT WEATHER AND/OR OBSTRUCTIONS TO VISIBILITY.


NEZ001>004-019>022-054>056-211600-
NEBRASKA PANHANDLE

CITY           SKY/WX    TMP DP  RH WIND       PRES   REMARKS
SCOTTSBLUFF    CLOUDY    32  24  72 N3        30.27R
ALLIANCE       CLOUDY    30  24  78 N12       30.24R WCI  20
CHADRON        CLOUDY    30  28  92 CALM      30.28R
GORDON         CLOUDY    29  23  77 N16       30.24R WCI  18
KIMBALL        CLOUDY    31  28  90 NE8       30.25R WCI  23
SIDNEY         CLOUDY    32  26  78 N17       30.24R WCI  21
$$

NEZ057>060-069>072-079>082-211600-
SOUTHWEST NEBRASKA

CITY           SKY/WX    TMP DP  RH WIND       PRES   REMARKS
NORTH PLATTE   CLOUDY    35  23  61 N12G24    30.22R WCI  27
IMPERIAL       CLOUDY    36  27  69 N20       30.24R WCI  25
LEXINGTON      PTSUNNY   37  28  67 N20       30.20R WCI  27
MCCOOK         MOSUNNY   38  27  64 N13G23    30.22R WCI  30
OGALLALA       MOSUNNY   36  25  65 N13G23    30.23R WCI  27
$$

NEZ005>010-023>029-035>040-094-211600-
NORTH CENTRAL NEBRASKA

CITY           SKY/WX    TMP DP  RH WIND       PRES   REMARKS
VALENTINE      SUNNY     25  16  68 N16G24    30.26R WCI  12
AINSWORTH      SUNNY     24  15  70 N20       30.24R WCI   9
BROKEN BOW     CLOUDY    35  24  64 N25G35    30.20R WCI  23
O`NEILL        SUNNY     22  13  70 NW28G35   30.24R WCI   4
ORD            CLOUDY    32  23  69 N23       30.19R WCI  19
THEDFORD       MOSUNNY   32  25  75 N18       30.23R WCI  21
$$

NEZ041-046>049-061>064-073>077-083>087-211600-
SOUTH CENTRAL NEBRASKA

CITY           SKY/WX    TMP DP  RH WIND       PRES   REMARKS
GRAND ISLAND   PTSUNNY   36  28  73 N22       30.17R WCI  25
AURORA         MOSUNNY   37  26  66 N26G38    30.15R WCI  25
HASTINGS       SUNNY     36  26  67 N24G35    30.16R WCI  24
HEBRON         CLOUDY    41  29  61 N21G28    30.12R
HOLDREGE       SUNNY     36  29  74 N18G26    30.17R WCI  26
KEARNEY        PTSUNNY   36  27  69 N16G24    30.18R WCI  26
$$

NEZ011>018-030>034-042>045-211600-
NORTHEAST NEBRASKA

CITY           SKY/WX    TMP DP  RH WIND       PRES   REMARKS
NORFOLK        SUNNY     26   9  48 N32G43    30.15R WCI   9
ALBION         SUNNY     32  19  57 N23G36    30.17R WCI  19
BLAIR          CLOUDY    36  13  38 NW28G35   30.08R WCI  24
COLUMBUS       PTSUNNY   33  11  39 NW28G37   30.15R WCI  20
FREMONT        CLOUDY    35  10  36 NW22G37   30.14R WCI  23
TEKAMAH        CLOUDY    31  13  47 NW32G44   30.13R WCI  16
WAYNE          SUNNY     23   5  46 NW22G36   30.19R WCI   7
$$

NEZ050>053-065>068-078-088>093-211600-
SOUTHEAST NEBRASKA

CITY           SKY/WX    TMP DP  RH WIND       PRES   REMARKS
LINCOLN        CLOUDY    41  26  55 N25G35    30.12R
OMAHA EPPLEY   CLOUDY    39  17  41 NW30G36   30.07R WCI  27
BEATRICE       CLOUDY    42  28  58 N18G25    30.09R
FALLS CITY     CLOUDY    43  27  53 N10G20    30.03R
NEBRASKA CITY  CLOUDY    41  27  55 N24       30.05R
PLATTSMOUTH    CLOUDY    41  26  55 NW25G35   30.06R HAZE
$$

NEZ044-045-051>053-067-211600-
OMAHA AREA

CITY           SKY/WX    TMP DP  RH WIND       PRES   REMARKS
OMAHA EPPLEY   CLOUDY    39  17  41 NW30G36   30.07R WCI  27
BLAIR          CLOUDY    36  13  38 NW28G35   30.08R WCI  24
FREMONT        CLOUDY    35  10  36 NW22G37   30.14R WCI  23
MILLARD        CLOUDY    41  18  39 N18G30    30.10R
OFFUTT AFB     PTSUNNY   42  16  34 N24G36    30.07R
PLATTSMOUTH    CLOUDY    41  26  55 NW25G35   30.06R HAZE
WAHOO          CLOUDY    37  13  37 NW31G45   30.11R WCI  24
$$




USA.gov is the U.S. government's official web portal to all federal, state and local government web resources and services.